Location: Vinland
(47.7731°N, 122.6974°W)
Time: 19:30:15
(UTC+00:00)

Vanguard 1 Rocket - Pass Details

Date: 26 March 2023
Orbit: 655 x 4220 km, 34.3° (Epoch: 05 June)

Event Time Altitude Azimuth Distance (km) Brightness Sun altitude
Rises 09:46:34 0° 262° (W) 7,723 11.8 -36.3°
Enters shadow 09:48:05 - 261° (W) 7,362 11.7 -36.2°
Exits shadow 10:13:58 24° 142° (SE) 2,884 9.7 -33.9°
Drops below altitude 10° 10:16:45 10° 128° (SE) 3,452 10.3 -33.6°
Sets 10:19:11 0° 120° (ESE) 4,111 10.8 -33.3°
